DiskSat-2

operational
NORAD ID: 67220 Int'l Des: 2025-305 Owner: STP Country: US
LEOCIRCULAR

关于 DiskSat-2

正在加载描述...

实时位置

正在加载3D地球...

即将过境

高度历史

Altitude vs Time

uPlot chart will show altitude changes over time

两行轨道根数

1 67220U 25305B 25354.24828476 .00000511 00000-0 51086-4 0 9993
2 67220 45.0108 310.7693 0004681 270.4757 89.5581 15.05702195 312
Epoch: Dec 20, 2025 • Age: 22 hours

当前状态

高度 553.7 km
速度 7.59 km/s
星下点 -25.65°S, 126.13°E
发射日期 Dec 18, 2025
运行时间 3 days
类型 other

技术详情

分类 Payload
质量 3.00 kg
干质量 3.00 kg
总质量 3.00 kg
长度 0.03 m
直径 1.00 m
跨度 1.00 m
形状 Cyl
制造商 AERO
平台类型 DiskSat
阶段状态 In Orbit
所有者/国家 STP/US

大型星座

Loading constellations...